TimeEDT,TemperatureF,Dew PointF,Humidity,Sea Level PressureIn,VisibilityMPH,Wind Direction,Wind SpeedMPH,Gust SpeedMPH,PrecipitationIn,Events,Conditions,WindDirDegrees,DateUTC
2:52 AM,42.1,39.0,89,30.23,10.0,Calm,Calm,-,N/A,,Partly Cloudy,0,2012-10-26 06:52:00
3:52 AM,39.9,37.0,89,30.22,10.0,Calm,Calm,-,N/A,,Clear,0,2012-10-26 07:52:00
4:52 AM,37.9,35.1,89,30.23,10.0,Calm,Calm,-,N/A,,Clear,0,2012-10-26 08:52:00
5:52 AM,37.0,34.0,89,30.22,10.0,Calm,Calm,-,N/A,,Clear,0,2012-10-26 09:52:00
6:52 AM,36.0,33.1,89,30.22,10.0,Calm,Calm,-,N/A,,Clear,0,2012-10-26 10:52:00
7:52 AM,37.0,34.0,89,30.24,10.0,Calm,Calm,-,N/A,,Clear,0,2012-10-26 11:52:00
8:52 AM,43.0,37.9,82,30.25,10.0,Calm,Calm,-,N/A,,Clear,0,2012-10-26 12:52:00
9:52 AM,51.1,41.0,68,30.22,10.0,Calm,Calm,-,N/A,,Clear,0,2012-10-26 13:52:00
10:52 AM,57.0,42.1,57,30.21,10.0,Calm,Calm,-,N/A,,Clear,0,2012-10-26 14:52:00
11:52 AM,62.1,45.0,53,30.19,10.0,Calm,Calm,-,N/A,,Clear,0,2012-10-26 15:52:00
12:52 PM,66.9,46.9,49,30.15,10.0,Calm,Calm,-,N/A,,Clear,0,2012-10-26 16:52:00
1:52 PM,70.0,48.0,46,30.12,10.0,Calm,Calm,-,N/A,,Clear,0,2012-10-26 17:52:00
2:52 PM,73.0,48.9,42,30.11,10.0,Calm,Calm,-,N/A,,Clear,0,2012-10-26 18:52:00
3:52 PM,73.0,51.1,46,30.11,10.0,WSW,3.5,-,N/A,,Clear,250,2012-10-26 19:52:00
4:52 PM,70.0,51.1,51,30.10,10.0,West,4.6,-,N/A,,Clear,270,2012-10-26 20:52:00
5:52 PM,62.1,52.0,70,30.11,10.0,Calm,Calm,-,N/A,,Clear,0,2012-10-26 21:52:00
6:52 PM,54.0,50.0,86,30.13,10.0,Calm,Calm,-,N/A,,Clear,0,2012-10-26 22:52:00
7:52 PM,51.1,48.0,89,30.14,10.0,Calm,Calm,-,N/A,,Clear,0,2012-10-26 23:52:00
8:52 PM,48.0,45.0,89,30.16,10.0,Calm,Calm,-,N/A,,Clear,0,2012-10-27 00:52:00
9:52 PM,46.9,43.0,86,30.15,9.0,Calm,Calm,-,N/A,,Clear,0,2012-10-27 01:52:00
10:52 PM,43.0,41.0,93,30.14,9.0,Calm,Calm,-,N/A,,Partly Cloudy,0,2012-10-27 02:52:00
11:52 PM,44.1,42.1,93,30.14,10.0,Calm,Calm,-,N/A,,Partly Cloudy,0,2012-10-27 03:52:00